Location: Lake Hudson State Recreational Area
(41.8372°N, 84.2445°W)
Time: 09:59:28
(UTC-05:00)

N. Korean satellite - Visible Passes

Search period start: 20 January 2018 00:00
Search period end: 30 January 2018 00:00
Orbit: 459 x 515 km, 97.2° (Epoch: 19 January)

Date Brightness Start Highest point End Pass type
(mag) Time Alt. Az. Time Alt. Az. Time Alt. Az.
20 Jan 8.7 06:49:17 10° NE 06:52:21 29° E 06:55:23 10° SSE visible
20 Jan 8.1 18:58:45 10° SSW 19:02:09 38° W 19:05:30 10° NNW visible
21 Jan 9.8 06:26:29 10° NE 06:28:32 15° E 06:30:34 10° SE visible
21 Jan 6.6 18:34:51 10° S 18:38:27 82° WSW 18:42:00 10° NNW visible
22 Jan 6.8 18:11:23 10° SSE 18:14:49 46° ENE 18:18:14 10° N visible
22 Jan 10.3 19:48:03 10° W 19:48:34 10° W 19:49:04 10° W visible
23 Jan 7.1 07:11:27 10° NNE 07:14:53 60° E 07:18:18 10° S visible
23 Jan 9.4 19:22:02 10° SW 19:24:43 20° W 19:27:23 10° NW visible
24 Jan 8.8 06:48:06 10° NE 06:51:08 28° E 06:54:11 10° SSE visible
24 Jan 8.1 18:57:35 10° SSW 19:00:57 39° W 19:04:16 10° NNW visible
25 Jan 9.9 06:25:19 10° ENE 06:27:19 15° E 06:29:19 10° SE visible
25 Jan 6.6 18:33:41 10° S 18:37:15 84° WSW 18:40:46 10° NNW visible
26 Jan 6.8 18:10:13 10° SSE 18:13:37 45° ENE 18:16:59 10° N visible
26 Jan 10.3 19:46:46 10° W 19:47:21 10° W 19:47:56 10° W visible
27 Jan 7.2 07:10:13 10° NNE 07:13:38 58° E 07:17:05 10° S visible
27 Jan 9.4 19:20:49 10° SW 19:23:30 20° W 19:26:10 10° NW visible
28 Jan 8.9 06:46:52 10° NE 06:49:54 28° E 06:52:57 10° SSE visible
28 Jan 8.0 18:56:23 10° S 18:59:43 39° W 19:03:02 10° NNW visible
29 Jan 9.9 06:24:06 10° ENE 06:26:05 14° E 06:28:04 10° SE visible
29 Jan 6.5 18:32:29 10° SSE 18:36:00 86° WSW 18:39:30 10° NNW visible
